[Date Prev][Date Next][Thread Prev][Thread Next] - [Date Index][Thread Index][Author Index]
2 Line ISS Keps 5-16
- Subject: [sarex] 2 Line ISS Keps 5-16
- From: "Dave Larsen PhD" <doc@xxxxxxxxxxx>
- Date: Sun, 16 May 2004 04:23:55 -0700
ISS
1 25544U 98067A 04137.17601787 .00011602 00000-0 10125-3 0 7857
2 25544 51.6264 128.8559 0010919 139.2408 324.4885 15.69436927313295
----
Via the sarex mailing list at AMSAT.ORG courtesy of AMSAT-NA.
To unsubscribe, send "unsubscribe sarex" to Majordomo@amsat.org
AMSAT Home